Previsão horária em Celaya

Hoje, 31 Julho, Sábado

Tempo Temperatura Precipitação Vento Pressão Humidade
00:00 +16°C° 0 mm 2 m/s 620 mmHg 91%
01:00 +16°C° 0 mm 1 m/s 620 mmHg 92%
02:00 +15°C° 0 mm 1 m/s 620 mmHg 93%
03:00 +15°C° 0 mm 1 m/s 619 mmHg 93%
04:00 +15°C° 0 mm 1 m/s 619 mmHg 93%
05:00 +15°C° 0 mm 1 m/s 619 mmHg 92%
06:00 +17°C° 0 mm 2 m/s 620 mmHg 85%
07:00 +19°C° 0 mm 2 m/s 621 mmHg 78%
08:00 +20°C° 0 mm 2 m/s 622 mmHg 71%
09:00 +23°C° 0 mm 2 m/s 622 mmHg 64%
10:00 +25°C° 0 mm 2 m/s 622 mmHg 56%
11:00 +27°C° 0 mm 2 m/s 622 mmHg 48%
12:00 +27°C° 0.1 mm 2 m/s 622 mmHg 45%
13:00 +28°C° 0.1 mm 2 m/s 622 mmHg 42%
14:00 +29°C° 0.1 mm 2 m/s 621 mmHg 38%
15:00 +28°C° 0 mm 2 m/s 621 mmHg 44%
16:00 +27°C° 0 mm 2 m/s 620 mmHg 49%
17:00 +26°C° 0 mm 2 m/s 620 mmHg 54%
18:00 +24°C° 0 mm 2 m/s 620 mmHg 58%
19:00 +21°C° 0 mm 2 m/s 620 mmHg 63%
20:00 +19°C° 0 mm 2 m/s 620 mmHg 67%
21:00 +18°C° 0 mm 2 m/s 620 mmHg 72%
22:00 +17°C° 0 mm 2 m/s 620 mmHg 76%
23:00 +16°C° 0 mm 2 m/s 620 mmHg 81%

Amanhã, 1 Agosto, Domingo

Tempo Temperatura Precipitação Vento Pressão Humidade
00:00 +16°C° 0 mm 2 m/s 619 mmHg 84%
01:00 +15°C° 0 mm 2 m/s 619 mmHg 87%
02:00 +15°C° 0 mm 1 m/s 619 mmHg 90%
03:00 +15°C° 0 mm 1 m/s 619 mmHg 91%
04:00 +14°C° 0 mm 1 m/s 619 mmHg 92%
05:00 +14°C° 0 mm 1 m/s 619 mmHg 93%
06:00 +16°C° 0 mm 2 m/s 620 mmHg 86%
07:00 +18°C° 0 mm 2 m/s 621 mmHg 78%
08:00 +20°C° 0 mm 2 m/s 622 mmHg 71%
09:00 +23°C° 0 mm 2 m/s 622 mmHg 63%
10:00 +25°C° 0 mm 2 m/s 622 mmHg 55%
11:00 +27°C° 0 mm 2 m/s 622 mmHg 47%
12:00 +28°C° 0 mm 2 m/s 622 mmHg 45%
13:00 +29°C° 0 mm 2 m/s 621 mmHg 42%
14:00 +29°C° 0 mm 2 m/s 621 mmHg 39%
15:00 +27°C° 0.1 mm 2 m/s 620 mmHg 48%
16:00 +25°C° 0.1 mm 2 m/s 619 mmHg 57%
17:00 +23°C° 0.1 mm 1 m/s 619 mmHg 66%
18:00 +21°C° 0.8 mm 1 m/s 619 mmHg 74%
19:00 +20°C° 0.8 mm 1 m/s 620 mmHg 82%
20:00 +18°C° 0.8 mm 1 m/s 620 mmHg 91%
21:00 +18°C° 0.1 mm 1 m/s 620 mmHg 92%
22:00 +16°C° 0.1 mm 1 m/s 620 mmHg 93%
23:00 +15°C° 0.1 mm 0 m/s 620 mmHg 94%

Depois de amanhã, 2 Agosto, Segunda-feira

Tempo Temperatura Precipitação Vento Pressão Humidade
00:00 +14°C° 0 mm 0 m/s 619 mmHg 94%
01:00 +14°C° 0 mm 0 m/s 619 mmHg 94%
02:00 +14°C° 0 mm 0 m/s 619 mmHg 94%
03:00 +14°C° 0 mm 0 m/s 619 mmHg 94%
04:00 +14°C° 0 mm 0 m/s 619 mmHg 93%
05:00 +15°C° 0 mm 1 m/s 619 mmHg 93%
06:00 +16°C° 0 mm 1 m/s 620 mmHg 87%
07:00 +19°C° 0 mm 1 m/s 621 mmHg 81%
08:00 +21°C° 0 mm 1 m/s 621 mmHg 75%
09:00 +23°C° 0.1 mm 1 m/s 622 mmHg 66%
10:00 +25°C° 0.1 mm 1 m/s 622 mmHg 57%
11:00 +27°C° 0.1 mm 1 m/s 622 mmHg 48%
12:00 +28°C° 0 mm 1 m/s 621 mmHg 46%
13:00 +28°C° 0 mm 1 m/s 621 mmHg 44%
14:00 +29°C° 0 mm 1 m/s 620 mmHg 41%
15:00 +27°C° 0.1 mm 1 m/s 620 mmHg 50%
16:00 +25°C° 0.1 mm 2 m/s 619 mmHg 59%
17:00 +24°C° 0.1 mm 2 m/s 618 mmHg 68%
18:00 +22°C° 1.7 mm 1 m/s 618 mmHg 76%
19:00 +20°C° 1.7 mm 1 m/s 619 mmHg 85%
20:00 +19°C° 1.7 mm 1 m/s 619 mmHg 94%
21:00 +18°C° 1.3 mm 1 m/s 619 mmHg 94%
22:00 +18°C° 1.3 mm 1 m/s 619 mmHg 94%
23:00 +16°C° 1.3 mm 0 m/s 620 mmHg 94%

3 Agosto, Terça-feira

Tempo Temperatura Precipitação Vento Pressão Humidade
00:00 +16°C° 0.1 mm 0 m/s 619 mmHg 94%
01:00 +16°C° 0.1 mm 0 m/s 619 mmHg 93%
02:00 +15°C° 0.1 mm 0 m/s 618 mmHg 93%
03:00 +15°C° 0 mm 0 m/s 618 mmHg 93%
04:00 +15°C° 0 mm 0 m/s 618 mmHg 93%
05:00 +15°C° 0 mm 0 m/s 618 mmHg 93%
06:00 +16°C° 0.1 mm 0 m/s 619 mmHg 88%
07:00 +17°C° 0.1 mm 0 m/s 620 mmHg 83%
08:00 +19°C° 0.1 mm 0 m/s 620 mmHg 78%
09:00 +20°C° 0.4 mm 0 m/s 620 mmHg 72%
10:00 +22°C° 0.4 mm 0 m/s 621 mmHg 65%
11:00 +23°C° 0.4 mm 0 m/s 621 mmHg 59%
12:00 +26°C° 0.6 mm 1 m/s 620 mmHg 57%
13:00 +26°C° 0.6 mm 1 m/s 620 mmHg 55%
14:00 +27°C° 0.6 mm 1 m/s 619 mmHg 53%
15:00 +25°C° 1.8 mm 1 m/s 619 mmHg 64%
16:00 +23°C° 1.8 mm 2 m/s 618 mmHg 74%
17:00 +20°C° 1.8 mm 2 m/s 618 mmHg 85%
18:00 +20°C° 1.7 mm 1 m/s 618 mmHg 87%
19:00 +20°C° 1.7 mm 1 m/s 618 mmHg 90%
20:00 +19°C° 1.7 mm 1 m/s 619 mmHg 93%
21:00 +19°C° 1.4 mm 1 m/s 619 mmHg 93%
22:00 +17°C° 1.4 mm 0 m/s 619 mmHg 93%
23:00 +17°C° 1.4 mm 0 m/s 619 mmHg 93%

4 Agosto, Quarta-feira

Tempo Temperatura Precipitação Vento Pressão Humidade
00:00 +16°C° 1 mm 0 m/s 619 mmHg 93%
01:00 +16°C° 1 mm 0 m/s 619 mmHg 94%
02:00 +16°C° 1 mm 0 m/s 618 mmHg 95%
03:00 +16°C° 0.3 mm 0 m/s 618 mmHg 95%
04:00 +16°C° 0.3 mm 0 m/s 618 mmHg 95%
05:00 +16°C° 0.3 mm 0 m/s 618 mmHg 96%
06:00 +18°C° 0 mm 1 m/s 619 mmHg 93%
07:00 +19°C° 0 mm 1 m/s 619 mmHg 91%
08:00 +19°C° 0 mm 1 m/s 620 mmHg 88%
09:00 +21°C° 0 mm 1 m/s 620 mmHg 81%
10:00 +22°C° 0 mm 1 m/s 620 mmHg 74%
11:00 +22°C° 0 mm 0 m/s 621 mmHg 67%
12:00 +25°C° 0.2 mm 1 m/s 620 mmHg 63%
13:00 +26°C° 0.2 mm 1 m/s 620 mmHg 60%
14:00 +27°C° 0.2 mm 1 m/s 620 mmHg 56%
15:00 +25°C° 1.4 mm 1 m/s 619 mmHg 65%
16:00 +23°C° 1.4 mm 1 m/s 619 mmHg 74%
17:00 +22°C° 1.4 mm 1 m/s 618 mmHg 83%
18:00 +19°C° 3.8 mm 2 m/s 618 mmHg 87%
19:00 +18°C° 3.8 mm 2 m/s 619 mmHg 91%
20:00 +17°C° 3.8 mm 3 m/s 619 mmHg 94%
21:00 +17°C° 1 mm 2 m/s 619 mmHg 94%
22:00 +16°C° 1 mm 2 m/s 620 mmHg 95%
23:00 +16°C° 1 mm 1 m/s 620 mmHg 95%

5 Agosto, Quinta-feira

Tempo Temperatura Precipitação Vento Pressão Humidade
00:00 +16°C° 0.1 mm 1 m/s 620 mmHg 94%
01:00 +16°C° 0.1 mm 1 m/s 619 mmHg 94%
02:00 +16°C° 0.1 mm 1 m/s 619 mmHg 94%
03:00 +16°C° 0 mm 1 m/s 619 mmHg 93%
04:00 +15°C° 0 mm 1 m/s 619 mmHg 93%
05:00 +15°C° 0 mm 1 m/s 619 mmHg 93%
06:00 +18°C° 0 mm 1 m/s 619 mmHg 88%
07:00 +19°C° 0 mm 1 m/s 620 mmHg 83%
08:00 +21°C° 0 mm 1 m/s 621 mmHg 77%
09:00 +23°C° 0 mm 1 m/s 621 mmHg 70%
10:00 +25°C° 0 mm 2 m/s 621 mmHg 62%
11:00 +27°C° 0 mm 2 m/s 622 mmHg 54%
12:00 +27°C° 0.1 mm 2 m/s 621 mmHg 53%
13:00 +27°C° 0.1 mm 1 m/s 621 mmHg 51%
14:00 +28°C° 0.1 mm 1 m/s 620 mmHg 50%
15:00 +27°C° 0.2 mm 2 m/s 620 mmHg 56%
16:00 +25°C° 0.2 mm 2 m/s 619 mmHg 63%
17:00 +24°C° 0.2 mm 2 m/s 619 mmHg 69%
18:00 +23°C° 0.2 mm 2 m/s 619 mmHg 72%
19:00 +20°C° 0.2 mm 2 m/s 619 mmHg 75%
20:00 +19°C° 0.2 mm 2 m/s 619 mmHg 79%
21:00 +18°C° 0 mm 2 m/s 619 mmHg 80%
22:00 +17°C° 0 mm 2 m/s 619 mmHg 81%
23:00 +16°C° 0 mm 2 m/s 619 mmHg 82%
Mostrar mais

Necessitamos do seu Consentimento

A Meteoprog e os seus Fornecedores de Serviços podem armazenar e aceder a dados pessoais como cookies, identificadores do dispositivo ou outras tecnologias semelhantes existentes no seu dispositivo e processar estes dados para personalizar conteúdos e anúncios, assim como funcionalidades nas redes sociais e análise de tráfego.

  • Armazenar e/ou aceder a informações no seu dispositivo

    Os cookies, identificadores do dispositivo ou outras informações podem ser armazenados ou acedidos no seu dispositivo, para os fins acima indicados.

  • Anúncios e conteúdos personalizados, medição de anúncios e conteúdos, dados sobre o público-alvo e desenvolvimento de produtos

    Os anúncios e os conteúdos podem ser personalizados com base num perfil. Podem ser adicionados dados adicionais para uma maior personalização dos anúncios e dos conteúdos. A eficácia dos anúncios e dos conteúdos pode ser medida. Podem ser obtidas informações sobre o público que visualizou os anúncios e os conteúdos. Estes dados podem ser usados para desenvolver ou melhorar sistemas, softwares ou a experiência do utilizador.

Ao clicar em "Eu concordo”, permitirá o uso de cookies, identificadores do dispositivo e web beacons mencionados ou outras tecnologias semelhantes. As configurações do navegador do seu dispositivo podem ser alteradas.

Para certos fins, podem ser invocados interesses legítimos ao invés de consentimento. Pode ler mais informação sobre este assunto na nossa Política de Privacidade e Cookies.